VE1DX Weather Reports


Display with metric or nautical units.
time (UTC)temp
F
wind
direction
speed
MPH
gust
MPH
rain 1hr
in
rain 24hr
in
rain mn
in
humidity
%
barometer
mb
20260510135017 58 135 6.0 15.0 0.00 0.00 0.00 78 1022.1
20260510134517 58 135 6.0 14.0 0.00 0.00 0.00 78 1022.1
20260510134017 58 135 5.0 14.0 0.00 0.00 0.00 78 1022.0
20260510133517 57 135 6.0 19.0 0.00 0.00 0.00 79 1022.1
20260510133017 57 135 6.0 12.0 0.00 0.00 0.00 78 1022.1
20260510132517 56 158 5.0 10.0 0.00 0.00 0.00 78 1022.1
20260510132017 56 135 7.0 15.0 0.00 0.00 0.00 78 1022.1
20260510131517 55 135 5.0 11.0 0.00 0.00 0.00 79 1022.2
20260510131017 55 135 6.0 17.0 0.00 0.00 0.00 80 1022.0
20260510130517 55 158 5.0 13.0 0.00 0.00 0.00 80 1022.0
20260510130017 55 113 5.0 16.0 0.00 0.00 0.00 81 1022.0
20260510125517 54 135 5.0 13.0 0.00 0.00 0.00 82 1022.1
20260510125017 53 135 4.0 11.0 0.00 0.00 0.00 84 1022.1
20260510124517 52 135 5.0 12.0 0.00 0.00 0.00 85 1022.1
20260510124017 52 158 3.0 12.0 0.00 0.00 0.00 87 1022.2
20260510123517 51 135 3.0 8.0 0.00 0.00 0.00 88 1022.2
20260510123017 51 158 5.0 13.0 0.00 0.00 0.00 88 1022.2
20260510122518 52 113 4.0 10.0 0.00 0.00 0.00 88 1022.2
20260510122017 52 158 5.0 15.0 0.00 0.00 0.00 87 1022.4
20260510121517 52 113 4.0 15.0 0.00 0.00 0.00 86 1022.4
20260510121017 52 135 3.0 10.0 0.00 0.00 0.00 87 1022.4
20260510120517 52 158 3.0 8.0 0.00 0.00 0.00 87 1022.2
20260510120017 52 135 3.0 10.0 0.00 0.00 0.00 87 1022.3
20260510115517 51 135 3.0 7.0 0.00 0.00 0.00 87 1022.2
20260510115017 51 135 2.0 6.0 0.00 0.00 0.00 87 1022.1
20260510114517 51 135 2.0 5.0 0.00 0.00 0.00 87 1022.2
20260510114017 51 135 3.0 12.0 0.00 0.00 0.00 86 1022.4
20260510113517 51 135 3.0 12.0 0.00 0.00 0.00 86 1022.3
20260510113017 51 135 3.0 11.0 0.00 0.00 0.00 85 1022.2
20260510112517 52 135 4.0 8.0 0.00 0.00 0.00 85 1022.3
20260510112018 52 135 4.0 11.0 0.00 0.00 0.00 84 1022.3
20260510111518 51 135 4.0 9.0 0.00 0.00 0.00 85 1022.2
20260510111017 51 135 2.0 5.0 0.00 0.00 0.00 85 1022.2
20260510110517 51 203 1.0 5.0 0.00 0.00 0.00 86 1022.2
20260510110017 51 158 2.0 5.0 0.00 0.00 0.00 86 1022.2
20260510105517 51 135 1.0 9.0 0.00 0.00 0.00 87 1022.3
20260510105017 50 225 1.0 7.0 0.00 0.00 0.00 87 1022.4
20260510104517 50 225 2.0 5.0 0.00 0.00 0.00 86 1022.3
20260510104017 50 225 1.0 5.0 0.00 0.00 0.00 86 1022.4
20260510103517 50 225 3.0 11.0 0.00 0.00 0.00 86 1022.4
20260510103017 50 135 1.0 8.0 0.00 0.00 0.00 86 1022.4
20260510102517 49 135 2.0 6.0 0.00 0.00 0.00 86 1022.2
20260510102017 49 135 1.0 5.0 0.00 0.00 0.00 86 1022.1
20260510101517 48 135 2.0 6.0 0.00 0.00 0.00 87 1022.1
20260510101018 48 135 1.0 3.0 0.00 0.00 0.00 87 1022.2
20260510100517 48 0.0 3.0 0.00 0.00 0.00 86 1022.2
20260510100018 48 0.0 2.0 0.00 0.00 0.00 86 1022.3
20260510095517 48 135 1.0 2.0 0.00 0.00 0.00 86 1022.3
20260510095017 48 0.0 3.0 0.00 0.00 0.00 85 1022.3
20260510094517 48 0.0 1.0 0.00 0.00 0.00 85 1022.3
20260510094017 48 225 1.0 3.0 0.00 0.00 0.00 84 1022.3
20260510093517 48 0.0 2.0 0.00 0.00 0.00 84 1022.2
20260510093017 49 135 1.0 3.0 0.00 0.00 0.00 84 1022.1
20260510092517 49 0.0 1.0 0.00 0.00 0.00 83 1022.2
20260510092017 49 0.0 2.0 0.00 0.00 0.00 83 1022.2
20260510091517 49 113 1.0 3.0 0.00 0.00 0.00 83 1022.2
20260510091017 49 135 1.0 2.0 0.00 0.00 0.00 83 1022.2
20260510090517 48 0.0 3.0 0.00 0.00 0.00 83 1022.2
20260510090017 48 0.0 3.0 0.00 0.00 0.00 83 1022.2
20260510085517 48 0.0 2.0 0.00 0.00 0.00 84 1022.1
20260510085017 48 0.0 2.0 0.00 0.00 0.00 84 1022.2
20260510084517 47 0.0 2.0 0.00 0.00 0.00 85 1022.1
20260510084017 47 0.0 1.0 0.00 0.00 0.00 86 1022.3
20260510083518 47 0.0 1.0 0.00 0.00 0.00 87 1022.2
20260510083017 47 113 1.0 2.0 0.00 0.00 0.00 87 1022.3
20260510082517 46 0.0 1.0 0.00 0.00 0.00 87 1022.4
20260510082017 46 0.0 1.0 0.00 0.00 0.00 87 1022.4
20260510081517 46 0.0 1.0 0.00 0.00 0.00 87 1022.3
20260510081017 46 0.0 0.0 0.00 0.00 0.00 87 1022.5
20260510080517 47 0.0 1.0 0.00 0.00 0.00 87 1022.3
20260510080017 46 0.0 2.0 0.00 0.00 0.00 87 1022.6
20260510075518 46 0.0 2.0 0.00 0.00 0.00 87 1022.4
20260510075017 46 0.0 2.0 0.00 0.00 0.00 87 1022.2
20260510074518 46 135 1.0 3.0 0.00 0.00 0.00 87 1022.0
20260510074017 46 0.0 1.0 0.00 0.00 0.00 87 1022.0
20260510073517 46 135 1.0 2.0 0.00 0.00 0.00 87 1021.8
20260510073017 46 135 1.0 5.0 0.00 0.00 0.00 87 1021.6
20260510072517 46 113 1.0 4.0 0.00 0.00 0.00 87 1021.6
20260510072017 46 180 1.0 3.0 0.00 0.00 0.00 88 1021.8
20260510071517 46 113 1.0 3.0 0.00 0.00 0.00 88 1021.6
20260510071018 46 135 1.0 3.0 0.00 0.00 0.00 88 1021.6
20260510070517 46 0.0 3.0 0.00 0.00 0.00 89 1021.7
20260510070017 46 0.0 3.0 0.00 0.00 0.00 89 1021.7
20260510065517 46 113 1.0 3.0 0.00 0.00 0.00 89 1021.7
20260510065017 46 0.0 1.0 0.00 0.00 0.00 89 1021.7
20260510064517 46 113 1.0 3.0 0.00 0.00 0.00 90 1021.7
20260510064017 46 0.0 2.0 0.00 0.00 0.00 90 1021.7
20260510063517 46 0.0 2.0 0.00 0.00 0.00 90 1021.6
20260510063017 46 135 1.0 2.0 0.00 0.00 0.00 90 1021.6
20260510062517 46 0.0 1.0 0.00 0.00 0.00 90 1021.6
20260510062017 46 0.0 3.0 0.00 0.00 0.00 90 1021.6
20260510061518 46 0.0 2.0 0.00 0.00 0.00 90 1021.6
20260510061017 46 0.0 1.0 0.00 0.00 0.00 90 1021.6
20260510060517 46 0.0 3.0 0.00 0.00 0.00 90 1021.6
20260510060017 46 135 1.0 4.0 0.00 0.00 0.00 91 1021.5
20260510055518 46 113 1.0 3.0 0.00 0.00 0.00 91 1021.5
20260510055017 46 135 1.0 5.0 0.00 0.00 0.00 91 1021.5
20260510054517 46 135 1.0 5.0 0.00 0.00 0.00 91 1021.5
20260510054017 46 135 1.0 6.0 0.00 0.00 0.00 92 1021.6
20260510053517 46 203 1.0 3.0 0.00 0.00 0.00 92 1021.7
20260510053018 46 0.0 0.0 0.00 0.00 0.00 92 1021.5
20260510052517 46 158 1.0 4.0 0.00 0.00 0.00 92 1021.4
20260510052017 46 135 1.0 3.0 0.00 0.00 0.00 92 1021.4
20260510051517 45 135 2.0 5.0 0.00 0.00 0.00 92 1021.6
20260510051017 45 135 1.0 3.0 0.00 0.00 0.00 92 1021.7
20260510050518 45 135 1.0 3.0 0.00 0.00 0.00 92 1021.8
20260510050018 45 113 1.0 3.0 0.00 0.00 0.00 92 1021.8
20260510045517 44 135 1.0 3.0 0.00 0.00 0.00 91 1021.9
20260510045017 44 0.0 2.0 0.00 0.00 0.00 91 1021.9
20260510044517 44 0.0 1.0 0.00 0.00 0.00 91 1021.8
20260510044017 44 0.0 2.0 0.00 0.00 0.00 91 1021.7
20260510043517 44 0.0 1.0 0.00 0.00 0.00 91 1021.8
20260510043017 44 158 1.0 3.0 0.00 0.00 0.00 91 1021.8
20260510042517 44 0.0 1.0 0.00 0.00 0.00 90 1021.9
20260510042018 45 0.0 2.0 0.00 0.00 0.00 90 1021.8
20260510041517 45 0.0 2.0 0.00 0.00 0.00 90 1022.0
20260510041017 45 0.0 0.0 0.00 0.00 0.00 90 1022.0
20260510040517 45 0.0 0.0 0.00 0.00 0.00 90 1022.0
20260510040017 45 0.0 0.0 0.00 0.00 0.00 90 1022.0
20260510035517 45 0.0 3.0 0.00 0.00 0.00 90 1022.0
20260510035017 45 0.0 2.0 0.00 0.00 0.00 90 1022.0
20260510034517 44 135 1.0 2.0 0.00 0.00 0.00 89 1021.9
20260510034018 45 135 1.0 2.0 0.00 0.00 0.00 89 1021.8
20260510033517 45 158 1.0 3.0 0.00 0.00 0.00 89 1021.8
20260510033017 45 113 1.0 2.0 0.00 0.00 0.00 89 1021.8
20260510032517 45 135 1.0 2.0 0.00 0.00 0.00 89 1021.8
20260510032017 45 113 1.0 2.0 0.00 0.00 0.00 88 1021.8
20260510031517 45 113 1.0 4.0 0.00 0.00 0.00 88 1021.8
20260510031017 45 135 1.0 3.0 0.00 0.00 0.00 88 1021.9
20260510030517 45 113 1.0 3.0 0.00 0.00 0.00 88 1021.8
20260510030017 45 113 1.0 3.0 0.00 0.00 0.00 88 1021.9
20260510025516 45 0.0 2.0 0.00 0.00 0.00 87 1021.9
20260510025015 45 135 1.0 3.0 0.00 0.00 0.00 87 1021.8
20260510024516 46 113 1.0 3.0 0.00 0.00 0.00 87 1021.8
20260510024015 46 135 1.0 2.0 0.00 0.00 0.00 86 1021.8
20260510023515 46 135 1.0 2.0 0.00 0.00 0.00 85 1021.7
20260510023016 46 0.0 1.0 0.00 0.00 0.00 85 1021.6
20260510022515 46 0.0 2.0 0.00 0.00 0.00 84 1021.7
20260510022015 47 113 1.0 3.0 0.00 0.00 0.00 83 1021.7
20260510021515 47 135 1.0 4.0 0.00 0.00 0.00 82 1021.7
20260510021015 47 135 1.0 4.0 0.00 0.00 0.00 80 1021.7
20260510020515 48 135 2.0 7.0 0.00 0.00 0.00 77 1021.7
20260510020015 48 0.0 2.0 0.00 0.00 0.00 77 1021.5
20260510015515 48 0.0 0.0 0.00 0.00 0.00 76 1021.4
20260510015015 48 0.0 0.0 0.00 0.00 0.00 76 1021.4
20260510014515 49 0.0 0.0 0.00 0.00 0.00 76 1021.4
20260510014015 49 0.0 0.0 0.00 0.00 0.00 76 1021.5
20260510013515 49 0.0 0.0 0.00 0.00 0.00 75 1021.4
20260510013016 49 0.0 0.0 0.00 0.00 0.00 75 1021.4
20260510012517 49 0.0 0.0 0.00 0.00 0.00 75 1021.5
20260510012015 49 0.0 0.0 0.00 0.00 0.00 75 1021.5
20260510011517 49 0.0 2.0 0.00 0.00 0.00 74 1021.6
20260510011015 49 0.0 1.0 0.00 0.00 0.00 74 1021.6
20260510010515 49 0.0 2.0 0.00 0.00 0.00 73 1021.6
20260510010015 49 0.0 2.0 0.00 0.00 0.00 72 1021.5
20260510005515 49 203 1.0 4.0 0.00 0.00 0.00 71 1021.6
20260510005015 50 225 1.0 3.0 0.00 0.00 0.00 71 1021.6
20260510004515 50 135 1.0 7.0 0.00 0.00 0.00 69 1021.5
20260510004015 50 113 1.0 6.0 0.00 0.00 0.00 69 1021.5
20260510003515 50 203 2.0 8.0 0.00 0.00 0.00 68 1021.4
20260510003016 50 203 1.0 3.0 0.00 0.00 0.00 67 1021.4
20260510002515 49 225 1.0 4.0 0.00 0.00 0.00 67 1021.3
20260510002017 49 225 1.0 3.0 0.00 0.00 0.00 68 1021.1
20260510001517 49 0.0 2.0 0.00 0.00 0.00 68 1021.1
20260510001017 49 225 1.0 3.0 0.00 0.00 0.00 68 1021.0
20260510000517 49 0.0 3.0 0.00 0.00 0.00 69 1021.0
20260510000017 49 113 1.0 3.0 0.00 0.00 0.00 68 1020.9
20260509235517 49 113 1.0 3.0 0.00 0.00 0.00 69 1020.9
20260509235017 49 135 1.0 5.0 0.00 0.00 0.00 68 1020.8
20260509234517 49 158 2.0 6.0 0.00 0.00 0.00 67 1020.7
20260509234017 49 113 1.0 5.0 0.00 0.00 0.00 66 1020.6
20260509233517 49 135 1.0 5.0 0.00 0.00 0.00 65 1020.6
20260509233017 49 135 2.0 6.0 0.00 0.00 0.00 64 1020.6
20260509232517 50 135 1.0 7.0 0.00 0.00 0.00 63 1020.4
20260509232017 50 158 2.0 4.0 0.00 0.00 0.00 62 1020.4
20260509231515 50 158 2.0 4.0 0.00 0.00 0.00 61 1020.3
20260509231016 50 225 1.0 5.0 0.00 0.00 0.00 60 1020.2
20260509230515 50 158 2.0 6.0 0.00 0.00 0.00 59 1020.1
20260509230015 51 135 2.0 4.0 0.00 0.00 0.00 58 1020.0
20260509225515 51 135 2.0 4.0 0.00 0.00 0.00 57 1019.9
20260509225015 51 225 1.0 4.0 0.00 0.00 0.00 57 1019.8
20260509224515 51 225 2.0 9.0 0.00 0.00 0.00 56 1019.8
20260509224015 51 158 2.0 7.0 0.00 0.00 0.00 55 1019.8
20260509223516 52 113 1.0 6.0 0.00 0.00 0.00 56 1019.7
20260509223017 52 135 2.0 7.0 0.00 0.00 0.00 55 1019.6
20260509222517 52 113 1.0 6.0 0.00 0.00 0.00 54 1019.5
20260509222017 53 135 2.0 7.0 0.00 0.00 0.00 53 1019.5
20260509221517 53 158 3.0 7.0 0.00 0.00 0.00 53 1019.4
20260509221017 54 225 2.0 13.0 0.00 0.00 0.00 53 1019.4
20260509220517 54 113 1.0 5.0 0.00 0.00 0.00 53 1019.3
20260509220018 54 135 2.0 8.0 0.00 0.00 0.00 53 1019.2
20260509215517 55 180 2.0 9.0 0.00 0.00 0.00 53 1019.1
20260509215017 55 135 2.0 7.0 0.00 0.00 0.00 52 1019.1
20260509214517 55 113 2.0 5.0 0.00 0.00 0.00 52 1019.1
20260509214017 55 135 3.0 7.0 0.00 0.00 0.00 52 1019.1
20260509213519 55 135 3.0 7.0 0.00 0.00 0.00 52 1019.1
20260509213017 56 135 3.0 8.0 0.00 0.00 0.00 51 1018.9
20260509212517 56 158 3.0 7.0 0.00 0.00 0.00 50 1018.9
20260509212017 56 158 2.0 8.0 0.00 0.00 0.00 50 1018.9
20260509211517 57 135 3.0 6.0 0.00 0.00 0.00 49 1018.7
20260509211017 57 113 2.0 8.0 0.00 0.00 0.00 48 1018.7
20260509210518 57 135 2.0 7.0 0.00 0.00 0.00 46 1018.6
20260509210017 57 135 3.0 7.0 0.00 0.00 0.00 46 1018.6
20260509205517 58 113 3.0 6.0 0.00 0.00 0.00 44 1018.6
20260509205018 59 158 2.0 7.0 0.00 0.00 0.00 44 1018.5
20260509204517 59 158 2.0 6.0 0.00 0.00 0.00 43 1018.4
20260509204019 59 113 2.0 10.0 0.00 0.00 0.00 43 1018.4
20260509203518 59 225 4.0 10.0 0.00 0.00 0.00 41 1018.4
20260509203017 59 225 3.0 12.0 0.00 0.00 0.00 42 1018.3
20260509202517 59 158 4.0 9.0 0.00 0.00 0.00 41 1018.3
20260509202017 59 135 4.0 11.0 0.00 0.00 0.00 40 1018.2
20260509201517 59 158 4.0 10.0 0.00 0.00 0.00 40 1018.2
20260509201017 59 135 5.0 14.0 0.00 0.00 0.00 41 1018.1
20260509200517 59 158 3.0 11.0 0.00 0.00 0.00 41 1018.0
20260509200018 59 113 4.0 16.0 0.00 0.00 0.00 41 1018.0
20260509195515 59 225 5.0 16.0 0.00 0.00 0.00 39 1017.8
20260509195017 60 158 4.0 9.0 0.00 0.00 0.00 41 1017.7
20260509194519 60 135 4.0 11.0 0.00 0.00 0.00 41 1017.6
20260509194019 60 225 4.0 13.0 0.00 0.00 0.00 41 1017.5
20260509193517 60 158 3.0 10.0 0.00 0.00 0.00 41 1017.5
20260509193017 60 135 3.0 8.0 0.00 0.00 0.00 42 1017.4
20260509192517 60 158 3.0 14.0 0.00 0.00 0.00 44 1017.5
20260509192015 59 225 4.0 11.0 0.00 0.00 0.00 46 1017.5
20260509191517 59 158 4.0 8.0 0.00 0.00 0.00 44 1017.5
20260509191017 59 158 3.0 10.0 0.00 0.00 0.00 45 1017.5
20260509190517 59 158 3.0 10.0 0.00 0.00 0.00 48 1017.6
20260509190017 59 158 4.0 10.0 0.00 0.00 0.00 50 1017.5
20260509185517 59 135 3.0 8.0 0.00 0.00 0.00 51 1017.5
20260509185017 60 158 3.0 10.0 0.00 0.00 0.00 48 1017.4
20260509184515 60 158 3.0 10.0 0.00 0.00 0.00 49 1017.5
20260509184017 60 158 3.0 13.0 0.00 0.00 0.00 45 1017.4
20260509183517 60 180 3.0 9.0 0.00 0.00 0.00 46 1017.3
20260509183017 60 225 3.0 10.0 0.00 0.00 0.00 48 1017.3
20260509182518 59 158 2.0 7.0 0.00 0.00 0.00 56 1017.2
20260509182017 58 135 4.0 8.0 0.00 0.00 0.00 56 1017.2
20260509181517 59 135 5.0 11.0 0.00 0.00 0.00 53 1017.2
20260509181015 59 158 4.0 9.0 0.00 0.00 0.00 52 1017.1
20260509180517 60 135 3.0 10.0 0.00 0.00 0.00 51 1017.1
20260509180017 60 135 5.0 15.0 0.00 0.00 0.00 50 1017.2
20260509175517 60 158 3.0 11.0 0.00 0.00 0.00 50 1017.1
20260509175017 60 225 4.0 14.0 0.00 0.00 0.00 49 1017.0
20260509174517 60 158 4.0 9.0 0.00 0.00 0.00 48 1016.9
20260509174017 61 135 3.0 8.0 0.00 0.00 0.00 47 1016.8
20260509173515 61 225 4.0 9.0 0.00 0.00 0.00 49 1016.8
20260509173018 60 135 3.0 9.0 0.00 0.00 0.00 47 1016.7
20260509172517 60 135 4.0 14.0 0.00 0.00 0.00 49 1016.7
20260509172017 60 180 4.0 12.0 0.00 0.00 0.00 47 1016.8
20260509171517 60 158 4.0 8.0 0.00 0.00 0.00 47 1016.8
20260509171017 60 135 3.0 11.0 0.00 0.00 0.00 46 1016.8
20260509170517 59 135 4.0 8.0 0.00 0.00 0.00 47 1016.8
20260509170015 60 135 4.0 13.0 0.00 0.00 0.00 46 1016.7
20260509165517 60 158 4.0 9.0 0.00 0.00 0.00 48 1016.7
20260509165017 60 158 4.0 10.0 0.00 0.00 0.00 45 1016.7
20260509164517 61 158 4.0 10.0 0.00 0.00 0.00 45 1016.7
20260509164017 61 135 3.0 9.0 0.00 0.00 0.00 45 1016.6
20260509163517 61 158 3.0 12.0 0.00 0.00 0.00 46 1016.5
20260509162516 60 225 3.0 8.0 0.00 0.00 0.00 46 1016.5
20260509162017 61 225 4.0 14.0 0.00 0.00 0.00 45 1016.6
20260509161517 61 135 4.0 8.0 0.00 0.00 0.00 42 1016.5
20260509161017 61 135 3.0 10.0 0.00 0.00 0.00 45 1016.4
20260509160517 61 203 3.0 9.0 0.00 0.00 0.00 44 1016.5
20260509160017 60 158 4.0 13.0 0.00 0.00 0.00 46 1016.4
20260509155517 59 293 4.0 13.0 0.00 0.00 0.00 43 1016.6
20260509155016 60 135 3.0 11.0 0.00 0.00 0.00 42 1016.6
20260509154519 60 113 3.0 8.0 0.00 0.00 0.00 42 1016.5
20260509154017 59 203 2.0 7.0 0.00 0.00 0.00 44 1016.5
20260509153517 60 158 4.0 10.0 0.00 0.00 0.00 41 1016.6
20260509153017 59 113 2.0 6.0 0.00 0.00 0.00 46 1016.5
20260509152517 57 158 3.0 10.0 0.00 0.00 0.00 45 1016.4
20260509152017 56 158 3.0 10.0 0.00 0.00 0.00 47 1016.5
20260509151517 56 225 1.0 6.0 0.00 0.00 0.00 48 1016.4
20260509151017 56 270 2.0 7.0 0.00 0.00 0.00 47 1016.4
20260509150518 56 315 2.0 7.0 0.00 0.00 0.00 47 1016.4
20260509150017 56 135 2.0 5.0 0.00 0.00 0.00 54 1016.4
20260509145517 56 225 2.0 6.0 0.00 0.00 0.00 54 1016.3
20260509145018 56 225 1.0 5.0 0.00 0.00 0.00 49 1016.3
20260509144519 56 0.0 3.0 0.00 0.00 0.00 49 1016.3
20260509144017 56 113 1.0 4.0 0.00 0.00 0.00 52 1016.3
20260509143517 56 135 2.0 6.0 0.00 0.00 0.00 53 1016.4
20260509143017 57 135 1.0 3.0 0.00 0.00 0.00 49 1016.4
20260509142517 57 135 2.0 5.0 0.00 0.00 0.00 48 1016.3
20260509142017 58 225 4.0 9.0 0.00 0.00 0.00 43 1016.3
20260509141517 58 248 4.0 11.0 0.00 0.00 0.00 41 1016.2
20260509141017 58 315 2.0 5.0 0.00 0.00 0.00 44 1016.1
20260509140518 59 248 3.0 11.0 0.00 0.00 0.00 49 1015.9
20260509140019 59 225 3.0 8.0 0.00 0.00 0.00 44 1015.9
20260509135518 58 225 1.0 4.0 0.00 0.00 0.00 48 1016.0